Simultaneous Nadir Overpasses (SNOs) Predictions

Prediction of SNOs between METOP-A and TERRA Satellite Orbit:

Table of predicted SNOs for the next 14.0 days since TLE Epoch: 3/7/2015
Index Date (METOP-A) Time (METOP-A) Lat,Lon (METOP-A) SZA (METOP-A ) Date (TERRA) Time (TERRA) Lat,Lon (TERRA) SZA (TERRA ) Distance(km) Time Diff (sec)
1 03/07/2015 12:51:23 81.33, 35.02 89.10 03/07/2015 12:51:40 81.32, 34.89 89.09 2.41 17
2 03/07/2015 13:42:03 -81.33,-157.35 90.88 03/07/2015 13:41:06 -81.34,-157.16 90.88 3.31 57
3 03/10/2015 08:25:45 81.32, 101.20 88.00 03/10/2015 08:26:09 81.32, 101.21 88.01 0.85 24
4 03/10/2015 09:16:24 -81.33, -90.74 91.93 03/10/2015 09:15:35 -81.34, -90.77 91.95 0.68 49
5 03/13/2015 04:00:07 81.33, 167.69 86.93 03/13/2015 04:00:48 81.32, 167.65 86.94 0.81 41
6 03/1
